Regional Weather Roundup
Issued by NWS

Home | Current Version | Previous Version | Graphics & Text | Print | Product List | Glossary Off
Versions: 1 2 3 4 5 6 7 8 9 10 11 12 13 14 15 16 17 18 19 20 21 22 23 24 25 26 27 28 29 30 31 32 33 34 35 36 37 38 39 40 41 42 43 44 45 46 47 48 49 50

311
ASUS43 KTOP 221659
RWRKS

WEATHER ROUNDUP FOR KANSAS
NATIONAL WEATHER SERVICE GOODLAND KS
1200 PM CDT SAT JUL 22 2017

NOTE:  "FAIR" INDICATES FEW OR NO CLOUDS BELOW 12,000 FEET WITH NO
SIGNIFICANT WEATHER AND/OR OBSTRUCTIONS TO VISIBILITY.

KSZ001>006-013>018-027>032-041>047-221800-
NORTHWEST KANSAS

CITY           SKY/WX    TMP DP  RH WIND       PRES   REMARKS
GOODLAND       CLOUDY    84  55  36 NE13      30.08S
HAYS           SUNNY     93  63  36 CALM      29.90
HILL CITY      SUNNY     95  66  38 NE14      29.94F HX  98
RUSSELL        SUNNY     95  59  30 VRB3      29.88S
$$

KSZ061>065-074>080-084>089-221800-
SOUTHWEST KANSAS

CITY           SKY/WX    TMP DP  RH WIND       PRES   REMARKS
DODGE CITY     SUNNY     91  60  35 W5        29.96S
ELKHART          N/A    N/A N/A N/A MISG        N/A
GARDEN CITY    SUNNY     90  58  33 VRB3      29.98F
LIBERAL        SUNNY     89  62  40 VRB3      30.00S
$$

KSZ066>073-081>083-090>101-221800-
SOUTHEAST KANSAS

CITY           SKY/WX    TMP DP  RH WIND       PRES   REMARKS
CHANUTE        SUNNY     98  70  40 SW16G24   29.88F HX 105
COFFEYVILLE    SUNNY     94  74  52 S15       29.90S HX 104
HUTCHINSON     SUNNY     99  63  30 SW10      29.88R HX 101
MEDICINE LODGE   N/A     97  63  32 SW9       29.88S HX  98
NEWTON         SUNNY     97  68  38 SW9       29.89S HX 102
PARSONS        SUNNY     94  73  50 S9        29.90F HX 103
WICHITA INTL   MOSUNNY   98  68  37 S13       29.87F HX 103
WICHITA JABRA  SUNNY     97  69  40 SW14G21   29.88S HX 103
WINFIELD       SUNNY     97  69  40 S9G23     29.90S HX 103
$$

KSZ007>012-019>026-033>040-048>060-102>105-221800-
NORTHEAST KANSAS

CITY           SKY/WX    TMP DP  RH WIND       PRES   REMARKS
CONCORDIA      SUNNY     93  69  45 NE7       29.87R HX  98
EMPORIA        SUNNY     95  70  44 SW10      29.87S HX 101
LAWRENCE       SUNNY     95  72  47 SW12      29.82F HX 103
MANHATTAN      SUNNY     97  69  40 VRB5      29.83S HX 103
OLATHE IND     SUNNY     93  72  50 SW14      29.85F HX 101
OLATHE EXE     SUNNY     90  74  59 SW9       29.85F HX  99
SALINA         SUNNY    100  61  27 VRB7      29.85S HX 101
TOPEKA BILLARD SUNNY     94  72  48 S7        29.82F HX 102
TOPEKA FORBES  SUNNY     94  73  50 SW12      29.84F HX 103
$$




USA.gov is the U.S. government's official web portal to all federal, state and local government web resources and services.